Location: Caixon
(43.4106°N, 0.0273°E)
Time: 22:50:48
(UTC+00:00)

Cosmos 2184 Rocket - Pass Details

Date: 16 October 2021
Orbit: 960 x 1001 km, 82.9° (Epoch: 07 December)

Event Time Altitude Azimuth Distance (km) Brightness Sun altitude
Rises 04:06:54 0° 346° (NNW) 3,653 7.0 -24.0°
Reaches altitude 10° 04:09:29 10° 341° (NNW) 2,704 6.2 -23.5°
Maximum altitude 04:15:19 46° 270° (W) 1,273 4.1 -22.5°
Enters shadow 04:16:23 42° 242° (WSW) 1,345 4.3 -22.3°
Exits shadow 04:20:28 13° 201° (SSW) 2,457 5.8 -21.5°
Drops below altitude 10° 04:21:10 10° 199° (SSW) 2,703 6.1 -21.4°
Sets 04:23:46 0° 193° (SSW) 3,651 6.8 -20.9°
